Temp_Advection
nan nan nan nan nan nan nan nan nan nan nan nan nan nan nan nan nan nan nan nan nan nan
nan -1 -1 -0 0 -1 -1 0 -0 0 0 1 1 1 0 0 1 0 0 1 1 nan
nan 0 1 1 -1 -2 0 1 0 -0 0 1 1 1 1 1 1 0 1 1 1 nan
nan 2 2 -0 -1 0 1 0 -1 0 1 1 2 1 0 1 0 0 1 1 1 nan
nan 3 2 -1 -1 1 -0 -1 1 2 1 0 1 1 1 1 1 1 1 0 1 nan
nan 1 -0 -0 1 0 -0 2 2 0 -1 0 2 1 1 1 1 1 1 1 1 nan
nan -1 -0 0 2 1 1 1 -0 1 3 2 1 1 1 1 1 1 1 1 1 nan
nan 0 0 0 1 1 0 1 3 3 2 1 0 -0 2 1 -0 0 1 1 1 nan
nan -0 -0 -0 1 1 0 3 3 1 2 1 -1 -0 2 1 0 -0 0 1 2 nan
nan 0 1 0 0 1 2 3 2 2 2 -1 -1 0 1 1 1 -0 -0 1 2 nan
nan 2 2 0 0 1 2 2 1 1 -0 -0 -1 0 1 2 1 0 0 0 1 nan
nan 2 2 -0 -0 1 2 0 0 1 -0 0 0 1 1 1 0 0 0 0 0 nan
nan -0 -0 -0 0 0 0 0 1 -0 -0 0 -0 0 1 1 0 0 0 0 1 nan
nan nan nan nan nan nan nan nan nan nan nan nan nan nan nan nan nan nan nan nan nan nan
Wind_Speed
53 54 52 50 47 44 43 40 45 50 53 53 52 50 47 45 45 45 43 43 41 39
56 57 57 53 51 49 45 44 42 42 45 48 52 52 49 48 47 47 45 44 42 42
54 56 57 58 57 53 50 49 46 44 42 43 47 50 50 49 48 49 47 46 45 44
51 54 56 58 59 58 56 54 52 49 47 43 44 47 49 50 49 50 50 48 48 46
51 52 53 55 56 59 60 58 56 54 52 49 46 45 46 49 50 50 51 51 50 49
50 51 53 54 53 54 56 58 58 58 56 54 52 49 46 46 46 46 48 50 50 49
50 50 51 51 51 51 51 54 56 57 58 56 54 52 50 46 43 42 42 45 42 45
41 44 47 47 49 49 50 51 54 54 55 54 53 53 53 46 41 40 39 39 37 38
39 43 46 44 47 49 50 51 52 53 53 52 52 51 52 46 42 41 38 36 35 34
40 42 45 45 46 47 48 49 50 50 50 48 47 45 46 43 42 41 37 34 33 32
38 42 42 44 46 47 46 48 46 46 46 43 42 40 39 39 40 37 34 31 27 24
22 35 37 40 41 43 44 43 42 43 40 39 40 37 35 35 35 33 32 30 27 24
11 16 24 30 35 36 39 39 40 41 35 33 34 33 33 33 32 32 33 30 29 29
7 6 22 28 31 34 36 37 38 35 32 32 32 30 28 29 31 33 33 34 33 36
Wind_Direction
232 232 235 236 238 237 238 238 239 236 234 235 234 234 235 234 232 230 228 230 231 232
233 233 235 238 239 241 242 241 241 242 239 238 239 238 237 234 232 232 230 231 233 234
239 239 238 238 239 240 243 243 241 243 242 241 240 239 239 237 234 234 235 234 235 235
240 241 240 240 242 242 243 244 242 243 242 243 242 239 239 240 237 236 237 238 238 238
239 242 242 241 242 244 245 245 247 245 244 242 242 241 239 240 240 241 240 240 240 241
239 240 243 246 245 244 246 247 247 249 247 246 244 241 241 240 241 243 245 244 243 243
241 241 242 245 246 245 246 246 248 249 250 248 246 245 244 240 241 244 246 248 248 246
243 247 245 245 245 245 245 248 249 250 250 251 249 247 247 242 240 243 247 249 248 247
240 243 244 245 245 245 246 248 248 250 250 249 250 250 250 246 240 239 242 246 246 245
232 237 243 244 243 243 244 246 246 248 247 248 252 252 250 247 240 239 239 238 240 242
234 236 242 245 245 246 244 243 243 244 247 248 251 252 249 243 238 237 237 233 234 233
234 235 239 245 246 246 245 242 238 243 246 245 245 246 243 239 234 233 228 225 222 216
230 234 242 246 243 243 243 240 238 237 242 243 243 240 235 231 227 224 221 215 215 217
25 235 231 236 238 236 236 233 232 232 236 235 234 232 230 223 222 222 220 219 218 219
Height
1453 1458 1462 1467 1471 1475 1479 1483 1488 1492 1497 1501 1507 1511 1516 1521 1525 1528 1531 1534 1539 1543
1443 1448 1451 1457 1462 1466 1471 1476 1480 1484 1488 1493 1498 1502 1507 1511 1515 1520 1524 1527 1531 1534
1432 1436 1442 1448 1451 1455 1460 1465 1470 1475 1479 1484 1488 1493 1497 1501 1507 1511 1515 1519 1522 1526
1422 1425 1432 1435 1439 1444 1450 1454 1459 1464 1470 1474 1478 1483 1487 1491 1496 1500 1505 1509 1512 1516
1412 1417 1421 1425 1429 1434 1438 1443 1448 1453 1459 1464 1469 1473 1476 1480 1485 1489 1494 1497 1503 1505
1402 1407 1410 1413 1419 1424 1427 1432 1437 1442 1447 1452 1457 1462 1467 1471 1475 1479 1484 1488 1492 1497
1389 1394 1398 1404 1410 1414 1417 1422 1425 1430 1435 1441 1447 1452 1457 1461 1466 1471 1474 1477 1481 1486
1380 1385 1391 1396 1399 1404 1407 1410 1414 1420 1425 1429 1435 1441 1445 1451 1459 1463 1466 1469 1472 1474
1374 1378 1381 1386 1390 1394 1397 1400 1405 1408 1414 1419 1423 1429 1435 1442 1449 1453 1456 1460 1464 1466
1365 1368 1372 1377 1381 1384 1387 1392 1394 1399 1404 1409 1413 1419 1425 1432 1438 1444 1447 1451 1455 1459
1356 1359 1364 1367 1370 1375 1378 1382 1385 1390 1395 1401 1404 1409 1416 1422 1428 1434 1439 1444 1447 1451
1347 1350 1354 1357 1361 1366 1370 1375 1378 1384 1387 1391 1395 1400 1408 1414 1418 1424 1430 1435 1439 1443
1344 1344 1347 1350 1354 1359 1364 1368 1372 1376 1378 1382 1386 1392 1399 1406 1409 1415 1421 1425 1430 1436
1338 1338 1340 1345 1349 1353 1357 1360 1364 1367 1371 1375 1379 1384 1391 1396 1400 1406 1410 1416 1422 1427